Regional Weather Roundup
Issued by NWS Wakefield, VA

Home | Current Version | Previous Version | Text Only | Print | Product List | Glossary On
Versions: 1 2 3 4 5 6 7 8 9 10 11 12 13 14 15 16 17 18 19 20 21 22 23 24 25 26 27 28 29 30 31 32 33 34 35 36 37 38 39 40 41 42 43 44 45 46 47 48 49
000
ASUS41 KAKQ 210010
RWRAKQ

REGIONAL WEATHER ROUNDUP
NATIONAL WEATHER SERVICE WAKEFIELD VA
800 PM EDT SAT SEP 20 2014

Note: "fair" indicates few or no clouds below 12,000 feet with no
significant weather and/or obstructions to visibility. * = Denotes
station may not report precipitation (e.g., rain,snow,etc.),
thunder or fog.

VAZ042-051-052>054-056-210100-
NORTHERN VIRGINIA

CITY           SKY/WX    TMP DP  RH WIND       PRES   REMARKS
WASH NATIONAL  PTCLDY    76  57  51 SE10      30.07S
DULLES         PTCLDY    70  58  65 SE6       30.05F
FORT BELVOIR   CLEAR     65  62  89 SE5       30.07S
QUANTICO       CLEAR     72  62  71 S8        30.07S
FREDERICKSBRG* PTCLDY    72  58  60 E3        30.05S
STAFFORD*      CLEAR     65  60  81 CALM      30.10S
WARRENTON      CLEAR     68  62  80 SE7       30.05S
CULPEPER*      CLEAR     72  57  60 CALM      30.06S
MANASSAS*      CLEAR     66  61  82 S7        30.05F
LEESBURG*      CLEAR     73  61  64 S5        30.06S
WINCHESTER     CLEAR     70  57  64 SE9       30.04S
FRONT ROYAL*   CLEAR     68  57  68 CALM      30.03F
LURAY*         CLEAR     72  59  64 S5        30.04F
$$

VAZ048-049-060>072-079>083-210100-
CENTRAL AND SOUTH CENTRAL VIRGINIA...AND NORTH CENTRAL NORTH CAROLINA

CITY           SKY/WX    TMP DP  RH WIND       PRES   REMARKS
RICHMOND       MOCLDY    71  63  75 E6        30.06F
CHESTERFIELD*    N/A    N/A N/A N/A E5        30.07F
PETERSBURG*    PTCLDY    70  61  73 E5        30.06S
HANOVER        PTCLDY    69  63  81 CALM      30.08F
TAPPAHANNOCK*  PTCLDY    67  60  77 CALM      30.08F
CHARLOTTSVILLE CLEAR     71  58  63 CALM      30.05S
ORANGE*        CLEAR     66  57  72 NE5       30.07S
LOUISA*        CLEAR     64  59  82 E5        30.05S
FARMVILLE*     CLEAR     66  57  72 CALM      30.04R
CREWE*         PTCLDY    65  62  88 CALM      30.05S
FORT PICKETT*  PTCLDY    67  61  80 E5        30.06S
LUNENBURG*     PTCLDY    70  63  78 CALM      30.05S
SOUTH HILL*    PTCLDY    66  64  94 CALM      30.10S
LAWRENCEVILLE* CLOUDY    70  64  83 CALM      30.05S
ROANOKE RAPIDS MOCLDY    70  64  83 NE5       30.03F
RALEIGH        MOCLDY    72  59  63 NE7       30.03F
$$

VAZ088>098-210100-
SOUTHEAST VIRGINIA

CITY           SKY/WX    TMP DP  RH WIND       PRES   REMARKS
NORFOLK        CLOUDY    72  67  84 NE9       30.04F
VIRGINIA BEACH CLOUDY    72  67  84 NE9       30.03F
NORFOLK NAVAL  CLOUDY    73  67  81 NE10      30.06F
WEST POINT*    MOCLDY    71  64  80 CALM      30.08F
NEWPORT NEWS   CLOUDY    74  66  76 NE8       30.05F
LANGLEY AFB    CLOUDY    71  69  93 E10       30.04F
FORT EUSTIS    MOCLDY    71  64  77 E5        30.04S
WILLIAMSBURG*  MOCLDY    72  66  83 CALM      30.06F
HR EXEC AP*    CLOUDY    70  64  83 NE7       30.06S
FRANKLIN*      MOCLDY    70  64  83 CALM      30.04S
WAKEFIELD      MOCLDY    71  64  78 CALM      30.05F
$$

VAZ020-022-025-037-045-210100-
WEST CENTRAL AND SOUTHWEST VIRGINIA

CITY           SKY/WX    TMP DP  RH WIND       PRES   REMARKS
STAUNTON*      CLEAR     70  54  57 CALM      30.08S
HOT SPRINGS VA CLEAR     58  43  58 S6        30.17F
LYNCHBURG      CLEAR     62  60  93 CALM      30.07F
DANVILLE       PTCLDY    66  61  84 CALM      30.05F
SOUTH BOSTON*  NOT AVBL
MARTINSVILLE   PTCLDY    64  64  99 CALM      30.08S
ROANOKE        PTCLDY    70  57  63 E5        30.08F
BLACKSBURG     CLEAR     63  63 100 CALM      30.11S
DUBLIN*        CLEAR     68  60  75 CALM      30.10S
MARION*        CLEAR     66  58  76 CALM      30.13S
HILLSVILLE*    CLEAR     64  57  78 S3        30.12S
RICHLANDS*     CLEAR     73  56  57 S5        30.10F
WISE*          CLEAR     64  55  72 S5        30.10F
ABINGDON*      CLEAR     68  60  76 CALM      30.07S
$$

MDZ021>025-VAZ099-100-210100-
SOUTHERN MARYLAND AND THE DELMARVA PENINSULA

CITY           SKY/WX    TMP DP  RH WIND       PRES   REMARKS
PATUXENT RIVER CLEAR     72  60  66 E12       30.07F
BAY BRIDGE APT   N/A     70  61  73 CALM      30.08S
LEONARDTOWN    CLEAR     68  61  77 CALM      30.09S
DOVER          CLEAR     69  65  88 E7        30.07F
GEORGETOWN     PTCLDY    68  64  87 E12       30.10F
EASTON         NOT AVBL
CAMBRIDGE      CLEAR     72  63  73 SE5       30.08S
SALISBURY      CLOUDY    72  65  78 E6        30.08F
OCEAN CITY     MOCLDY    71  67  87 E7        30.08S
WALLOPS ISLAND MOCLDY    72  68  87 E8        30.07F
ACCOMACK*      CLOUDY    70  64  83 E7        30.06S
$$

NCZ012>017-030>032-210100-
EASTERN NORTH CAROLINA

CITY           SKY/WX    TMP DP  RH WIND       PRES   REMARKS
ELIZABETH CITY CLOUDY    71  68  90 NE10      30.02F
AHOSKIE*       MOCLDY    70  65  84 NE5       30.04S
EDENTON*       CLOUDY    71  68  91 NE6       30.02S
CURRITUCK*     CLOUDY    72  67  84 NE6       30.03F
KILL DEVIL HLS CLOUDY    73  71  93 NE7       29.99S FOG
MANTEO         CLOUDY    72  71  96 NE9       30.00F
CAPE HATTERAS  CLOUDY    72  71  97 E8        29.97F
TARBORO*       CLOUDY    71  65  81 N3        30.03S
GOLDSBORO      CLOUDY    73  70  91 NE1       29.98F
WASHINGTON     CLOUDY    71  65  83 NE7       30.02R
GREENVILLE     CLOUDY    72  68  88 NE6       30.03S
NEW BERN       LGT RAIN  73  68  84 NE8       30.00S
WILMINGTON     LGT RAIN  72  70  93 N9        29.94F
$$

VAZ048-210100-
ELSEWHERE

CITY           SKY/WX    TMP DP  RH WIND       PRES   REMARKS
HARRISBURG PA  PTCLDY    70  57  63 SE6       30.04S
BALTIMORE      PTCLDY    71  59  65 SE3       30.07S
ANNAPOLIS      CLEAR     71  63  75 CALM      30.07S
ANDREWS AFB    CLEAR     67  60  79 SE6       30.07F
WILMINGTON DE  CLEAR     70  64  81 SE7       30.10S
PHILADELPHIA   PTCLDY    70  59  68 SE6       30.11R
WILDWOOD NJ*   CLOUDY    70  63  78 E10       30.11F
ATLANTIC CITY  CLEAR     67  62  84 SE7       30.11F
HENDERSON NC   MOCLDY    66  61  84 CALM      30.05F
GREENSBORO     MOCLDY    70  59  68 NE6       30.05S
ROCKY MOUNT    CLOUDY    71  66  84 NE6       30.02F
FAYETTEVILLE   CLOUDY    73  62  68 N9        29.99F
CHARLOTTE      MOCLDY    72  58  61 N5        30.03F
$$

VAZ100-210100-
MARINE

STATION/POSITION TIME  TEMP    WIND        PRES    WAVE   SWELL
                       AIR SEA DIR/SP/G            HT/PER HT/PER
                 (UTC) (F)     (DEG/KT/KT) (MB)    (FT/S) (FT/S)
44066 TX TWR #4  0000   73 72  130/ 14/ 16 1019.9F   5/10   3/10
CAPE MAY NJ      0000   70 75   70/  5/  7 1018.8F
LEWES DE         0000   71 72  130/  6/  9 1018.8R
15NM E FENWICK I 0000   71 72              1017.7F   7/ 9
OCEAN-CITY-INLET 0000   71 72  110/  5/  9 1018.3R
WACHAPREAGUE VA  0000   71 74   70/ 14/ 15 1017.8R
THOMAS POINT MD  0000   74 74  190/  4/  4 1019.4R
GOOSES REEF MD   0000   75     170/ 10/ 14 1018.8S
COVE POINT MD    0000   72     160/ 12/ 14 1018.3F
SOLOMONS ISLAND  0000      77                N/A
BISHOPS HEAD MD  0000   71 74   80/  9/ 12 1018.0F
PINEY POINT MD   0000          130/ 11/ 12   N/A
POTOMAC MD       0000   73     110/ 10/ 10 1017.8F
CAMBRIDGE MD     0000   71 74  130/  4/  7 1018.3S
LEWISETTA VA     0000   72 75  110/  8/  9 1017.9F
RAPPAHANNOCK LGT 0000           70/ 13/ 15 1018.0F
STINGRAY PT      0000   73      80/  8/ 12   N/A
YORK RVR RNG VA  0000   72      80/ 12/ 14 1017.2F
YORKTOWN VA      0000   72 76   80/ 13/ 14 1017.4S
JAMESTOWN VA     0000   71      90/  4/  8   N/A
DOMINION TERM VA 0000   72      70/  9/ 12 1017.6R
KIPTOPEKE VA     0000      79   80/  8/ 11   N/A
CHES BAY BRIDGE  0000   72 75   40/ 12/ 15 1016.7F
CAPE HENRY VA    0000   72      50/ 11/ 13 1016.0F
CHESAPEAKE LGHT  2300   72      60/ 18/ 19 1017.6F
WILLOUBY STN VA  0000   72      50/ 10/ 12 1016.1R
S CRANEY ISL VA  0000           20/  9/ 11 1016.9F
CAPE HENRY BUOY  0000      75                N/A     6/10   2/11
1ST LANDING BUOY 0000   72      60/ 14/ 16 1017.0S
CAPE CHARLES BUO 0000      74                N/A     6/ 8   5/ 8
OFFSHORE WE BUOY 0000      74                N/A     7/ 8   5/ 8
64NM E OF VA BCH 0000   76 77   50/ 12/ 14 1016.1F   7/10   7/10
DUCK PIER NC     0000   73 74   50/ 17/ 19 1015.5R
44100 DUCK FRF   0000      74                N/A     7/10   2/11
44056 DUCK FRF   0000                        N/A     6/ 9   2/11
OREGON INLET NC  0000   74 73   30/  8/ 11 1015.4S
HATTERAS NC      0000   74 73   90/  3/  5 1015.3F
DIAMOND SHLS NC  0000   76     100/ 17/ 21 1014.1F   8/ 9   3/ 9
CAPE LOOKOUT NC  2300   72      20/ 13/ 16 1014.2F
$$


USA.gov is the U.S. government's official web portal to all federal, state and local government web resources and services.